[[{"header":{"parameterUnit":"m.s-1","parameterCategory":1,"la1":30.2991,"la2":30.254,"lo1":-89.0895,"lo2":-89.0444,"dy":0.0017,"dx":0.0017,"nx":28,"ny":28,"refTime":"2025-04-26T21:00:00:Z","depth":0,"parameterNumber":2,"parameterNumberName":"U-component_of_WINDS"},"data":[0,0,0,0,0,0,0,0,0,0,0,0,0,0,0,0,0,0,0,0,0,0,0,0,0,0,0,0,0,0,0,0,0,0,0,0,0,0,0,0,0,0,0,0,0,0,0,0,0,0,0,0,0,0,0,0,0,0,0.4985,0.4986,0,0.5083,0.5084,0.5085,0.511,0.5109,0.5109,0.5108,0.5208,0.5211,0.5214,0,0,0,0,0,0,0,0,0,0,0,0,0,0.4819,0.4822,0.4985,0.4987,0.4988,0.5083,0.5084,0.5086,0.511,0.5109,0.5108,0.5108,0.5207,0.5211,0.5215,0,0,0,0,0,0,0,0,0,0,0,0,0,0.4902,0.4823,0.4985,0.5011,0.5015,0.5083,0.5084,0.5086,0.511,0.5109,0.5108,0.5107,0.5206,0.521,0.5215,0.5264,0,0,0.523,0.5232,0,0,0,0,0,0,0,0,0.4897,0.4908,0.5006,0.501,0.5014,0.5083,0.5062,0.5146,0.511,0.5074,0.5108,0.5107,0.5167,0.5175,0.5196,0.5268,0.5273,0.523,0.5233,0.5235,0.5237,0,0,0,0,0,0,0,0.4891,0.4904,0.5024,0.5008,0.5012,0.5018,0.5029,0.5078,0.5125,0.5077,0.5079,0.509,0.5169,0.5191,0.5198,0.5274,0.523,0.5235,0.5238,0.5239,0.5391,0.5392,0,0,0,0,0,0,0.4881,0.4899,0.5021,0.5027,0.4952,0.5022,0.5034,0.5062,0.5124,0.5133,0.5091,0.5091,0.5183,0.5192,0.5202,0.5262,0.5235,0.524,0.5243,0.539,0.5391,0.5392,0,0,0,0,0,0,0.4877,0.4892,0.5017,0.4963,0.498,0.5026,0.5057,0.5064,0.5086,0.5135,0.5143,0.5105,0.5183,0.5195,0.5248,0.5266,0.5242,0.5247,0.5389,0.539,0.5392,0.5384,0,0,0,0,0,0,0.4872,0.489,0.4909,0.4964,0.4983,0.5062,0.5058,0.5067,0.5094,0.5095,0.515,0.5158,0.5183,0.5241,0.5253,0.5272,0.525,0.5387,0.5389,0.5391,0.5382,0.5385,0.5387,0,0,0,0,0,0.4866,0.4903,0.491,0.4925,0.5007,0.5063,0.5074,0.5101,0.5096,0.5115,0.5146,0.5156,0.5262,0.5246,0.526,0.5281,0.5386,0.5389,0.5391,0.5381,0.5384,0.5387,0,0,0,0,0,0,0.485,0.4911,0.4919,0.4975,0.5013,0.5067,0.5092,0.5104,0.5145,0.5144,0.5177,0.5189,0.524,0.5266,0.5247,0.5331,0.5324,0.5329,0.5312,0.5315,0.5317,0.531,0.5254,0,0,0,0,0,0.4853,0.4893,0.4944,0.4988,0.5007,0.5046,0.5071,0.5089,0.5131,0.5147,0.5182,0.5222,0.5264,0.5291,0.5332,0.5386,0.5398,0.5408,0.541,0.5411,0.5416,0.5445,0.545,0.5401,0.5401,0.5401,0,0,0.4859,0.4897,0.4921,0.4986,0.5018,0.5058,0.506,0.5102,0.5133,0.5154,0.5206,0.5233,0.5279,0.5332,0.5358,0.5356,0.5432,0.5415,0.5415,0.5419,0.5448,0.5453,0.5457,0.5402,0.5402,0.5402,0,0,0.4891,0.4924,0.4964,0.4996,0.5045,0.507,0.508,0.5132,0.515,0.5203,0.5219,0.5256,0.5328,0.536,0.5385,0.5429,0.5439,0.5441,0.5452,0.5481,0.5485,0.5488,0.5503,0.5508,0.5445,0.5445,0.5445,0,0.4893,0.4954,0.4983,0.5025,0.5053,0.5074,0.5114,0.5144,0.5203,0.5222,0.5218,0.5309,0.5342,0.5402,0.5413,0.5433,0.5445,0.5435,0.5482,0.5486,0.549,0.5504,0.551,0.5445,0.5445,0.5445,0.5445,0,0.4954,0.4996,0.5022,0.5079,0.511,0.5151,0.5186,0.5213,0.5229,0.5254,0.5307,0.5347,0.5397,0.5413,0.5428,0.5476,0.5473,0.5475,0.5469,0.5494,0.5508,0.5514,0.5445,0.5445,0.5445,0.5445,0,0,0.4978,0.505,0.5059,0.5085,0.5139,0.5172,0.5214,0.5262,0.5285,0.5325,0.536,0.5421,0.5423,0.5452,0.5471,0.5497,0.5527,0.5496,0.5498,0.55,0.5581,0.5579,0.5585,0.5535,0.5536,0.5537,0.5577,0,0.5016,0.5092,0.5119,0.518,0.5219,0.5239,0.5275,0.5312,0.5338,0.5374,0.5402,0.5444,0.5444,0.5462,0.5488,0.5518,0.5544,0.5516,0.5567,0.5569,0.5555,0.5592,0.559,0.5626,0.5583,0.5584,0.5585,0,0.5071,0.5112,0.5177,0.5226,0.5244,0.5276,0.5322,0.5357,0.5399,0.5415,0.5447,0.5465,0.5509,0.55,0.556,0.554,0.5563,0.5581,0.5583,0.5589,0.5578,0.5598,0.5638,0.5643,0.5594,0.5593,0.5592,0,0.5082,0.5153,0.5201,0.5222,0.5281,0.5303,0.5328,0.5369,0.5396,0.5437,0.5455,0.5499,0.5524,0.5558,0.5587,0.5578,0.5644,0.5638,0.5659,0.5658,0.5672,0.567,0.5715,0.5687,0.5687,0.5687,0.5687,0,0.5121,0.516,0.5206,0.5236,0.528,0.531,0.5353,0.538,0.5416,0.5451,0.5471,0.5503,0.554,0.5576,0.5599,0.5645,0.5656,0.5671,0.5676,0.5669,0.5667,0.5684,0.5682,0.5688,0.5688,0.5688,0.5688,0,0.514,0.5173,0.5226,0.5277,0.5291,0.5321,0.5365,0.5394,0.542,0.5463,0.5475,0.5516,0.556,0.5592,0.565,0.5665,0.5714,0.572,0.57,0.5702,0.5721,0.5719,0.5778,0.5787,0.5753,0.5753,0.5754,0,0.5163,0.5194,0.5248,0.5272,0.5298,0.5337,0.5365,0.5396,0.5424,0.5474,0.5497,0.5543,0.5581,0.565,0.5685,0.5728,0.5735,0.5753,0.5742,0.5733,0.5735,0.5732,0.5735,0.5754,0.5755,0.5755,0.5755,0,0.52,0.5215,0.5254,0.5298,0.5331,0.5367,0.5404,0.5423,0.5461,0.5491,0.5536,0.5566,0.5624,0.5669,0.5715,0.5741,0.5754,0.5758,0.5765,0.5758,0.5744,0.5751,0.5703,0.5757,0.5756,0.5756,0.5756,0.5756,0.5222,0.5249,0.5292,0.5334,0.5365,0.5399,0.5429,0.5458,0.5497,0.5546,0.5562,0.5609,0.565,0.5714,0.5741,0.5777,0.5777,0.5787,0.579,0.5792,0.5791,0.5739,0.5786,0.5786,0.5786,0.5786,0.5786,0,0.5259,0.5287,0.5326,0.5377,0.541,0.542,0.5461,0.5488,0.5529,0.5566,0.5603,0.5655,0.5698,0.5736,0.578,0.5803,0.581,0.5813,0.5812,0.5817,0.5789,0.5778,0.5807,0.5807,0.5807,0.5807,0.5807,0.5807,0.5282,0.533,0.5349,0.5411,0.5439,0.5485,0.5508,0.5539,0.5568,0.5625,0.5661,0.5686,0.5723,0.577,0.581,0.582,0.5836,0.5838,0.5849,0.5822,0.5819,0.5817,0.5807,0.5841,0.5841,0.5874,0.5875,0.5875]},{"header":{"parameterUnit":"m.s-1","parameterCategory":1,"la1":30.2991,"la2":30.254,"lo1":-89.0895,"lo2":-89.0444,"dy":0.0017,"dx":0.0017,"nx":28,"ny":28,"refTime":"2025-04-26T21:00:00:Z","depth":0,"parameterNumber":3,"parameterNumberName":"V-component_of_WINDS"},"data":[0,0,0,0,0,0,0,0,0,0,0,0,0,0,0,0,0,0,0,0,0,0,0,0,0,0,0,0,0,0,0,0,0,0,0,0,0,0,0,0,0,0,0,0,0,0,0,0,0,0,0,0,0,0,0,0,0,0,3.3849,3.3849,0,3.3844,3.3844,3.3844,3.377,3.3768,3.3767,3.3765,3.3759,3.3761,3.3762,0,0,0,0,0,0,0,0,0,0,0,0,0,3.3795,3.3797,3.3849,3.3849,3.3849,3.3844,3.3844,3.3844,3.3771,3.3768,3.3766,3.3764,3.3759,3.3761,3.3763,0,0,0,0,0,0,0,0,0,0,0,0,0,3.3807,3.3797,3.3849,3.3812,3.3808,3.3844,3.3844,3.3844,3.3771,3.3768,3.3766,3.3763,3.3758,3.3761,3.3763,3.3833,0,0,3.377,3.3771,0,0,0,0,0,0,0,0,3.3807,3.3809,3.3817,3.3815,3.3811,3.3805,3.3822,3.384,3.3772,3.3785,3.3765,3.3762,3.3777,3.3777,3.3783,3.3833,3.3833,3.377,3.3772,3.3773,3.3773,0,0,0,0,0,0,0,3.3806,3.3809,3.3847,3.3818,3.3814,3.3795,3.3794,3.3826,3.3797,3.3784,3.3779,3.3779,3.3774,3.378,3.3782,3.3833,3.377,3.3772,3.3774,3.3775,3.394,3.3943,0,0,0,0,0,0,3.381,3.3809,3.3847,3.3847,3.3802,3.3798,3.3797,3.381,3.3796,3.3791,3.3781,3.3776,3.3778,3.3779,3.3781,3.3862,3.3773,3.3775,3.3776,3.3937,3.394,3.3944,0,0,0,0,0,0,3.3809,3.3814,3.3847,3.3826,3.3829,3.3802,3.3817,3.3811,3.3817,3.3794,3.3789,3.3793,3.3776,3.3778,3.3821,3.3861,3.3776,3.3778,3.3933,3.3938,3.3942,3.4025,0,0,0,0,0,0,3.3808,3.3814,3.3841,3.3827,3.3831,3.3887,3.382,3.3813,3.3821,3.3814,3.3804,3.3799,3.3774,3.3818,3.3823,3.3863,3.378,3.393,3.3935,3.3941,3.4019,3.4032,3.4043,0,0,0,0,0,3.3806,3.3865,3.3843,3.3848,3.3863,3.389,3.3891,3.3861,3.3825,3.3851,3.3836,3.38,3.3856,3.3823,3.3828,3.3869,3.3927,3.3934,3.394,3.4013,3.403,3.4043,0,0,0,0,0,0,3.3884,3.3863,3.3838,3.3894,3.3894,3.3877,3.391,3.3879,3.3889,3.3882,3.3843,3.3842,3.389,3.3884,3.3847,3.3936,3.3885,3.3893,3.3939,3.3954,3.3966,3.3966,3.3782,0,0,0,0,0,3.3908,3.3931,3.3911,3.3962,3.3964,3.3937,3.3947,3.3923,3.3922,3.3922,3.391,3.3911,3.3928,3.3941,3.3956,3.4018,3.4014,3.4049,3.4061,3.4071,3.4078,3.411,3.4125,3.3965,3.3965,3.3965,0,0,3.3957,3.3948,3.3965,3.3978,3.3975,3.4,3.3937,3.3966,3.3984,3.3926,3.3966,3.3957,3.3955,3.4008,3.403,3.4004,3.4122,3.408,3.4088,3.409,3.4119,3.4134,3.4147,3.397,3.3969,3.3968,0,0,3.4059,3.4055,3.4097,3.4096,3.4092,3.4074,3.4084,3.4072,3.4064,3.4103,3.406,3.4081,3.4112,3.4112,3.4116,3.4217,3.4184,3.4223,3.4287,3.4319,3.4332,3.4342,3.4378,3.4392,3.4231,3.4231,3.4231,0,3.4121,3.4156,3.4122,3.4154,3.416,3.4109,3.4151,3.4151,3.4153,3.4159,3.4129,3.4167,3.4162,3.4214,3.4238,3.4243,3.4254,3.4224,3.4332,3.4343,3.4353,3.4387,3.44,3.4236,3.4235,3.4235,3.4234,0,3.4232,3.4257,3.4291,3.4294,3.4305,3.4342,3.4313,3.4327,3.4303,3.4287,3.4327,3.4319,3.4332,3.4342,3.4318,3.439,3.4374,3.4339,3.4287,3.4374,3.4405,3.4417,3.4243,3.4241,3.424,3.4238,0,0,3.4383,3.4367,3.438,3.438,3.4373,3.4391,3.4426,3.4437,3.445,3.4453,3.4481,3.4508,3.4476,3.4481,3.4456,3.4484,3.4565,3.4446,3.4445,3.4468,3.4643,3.4669,3.4685,3.4542,3.4545,3.4546,3.4643,0,3.4481,3.4539,3.4509,3.457,3.4593,3.4544,3.4573,3.4572,3.4559,3.4576,3.4561,3.4581,3.4537,3.4539,3.4564,3.455,3.4599,3.4542,3.4567,3.4569,3.4569,3.4701,3.4729,3.482,3.4655,3.4657,3.4659,0,3.4604,3.4612,3.4675,3.4663,3.4671,3.4698,3.4706,3.4724,3.4721,3.4709,3.4714,3.4683,3.4715,3.4664,3.4707,3.4669,3.4678,3.4672,3.4675,3.4676,3.4619,3.4706,3.4849,3.4863,3.4677,3.4676,3.4675,0,3.4707,3.4734,3.4775,3.4777,3.4764,3.4784,3.4779,3.4774,3.4783,3.479,3.4795,3.4806,3.4812,3.4821,3.4794,3.4759,3.4841,3.4787,3.4832,3.4833,3.4852,3.4851,3.4999,3.4858,3.4858,3.4857,3.4857,0,3.482,3.4861,3.4821,3.4847,3.4891,3.4856,3.49,3.489,3.4886,3.4908,3.4867,3.4889,3.4851,3.4869,3.4848,3.4888,3.4891,3.4882,3.4876,3.4886,3.4887,3.4891,3.4884,3.4861,3.486,3.486,3.4859,0,3.4943,3.4919,3.496,3.4944,3.4941,3.4974,3.496,3.4983,3.4966,3.4995,3.5,3.4974,3.4993,3.4967,3.4984,3.4969,3.5023,3.5008,3.5025,3.502,3.5066,3.5062,3.5222,3.5241,3.5088,3.5089,3.5091,0,3.5017,3.5047,3.5034,3.5046,3.5044,3.5063,3.5072,3.5039,3.5049,3.5048,3.5071,3.5087,3.5097,3.513,3.5113,3.5126,3.511,3.5165,3.5111,3.512,3.511,3.5109,3.5112,3.5176,3.5178,3.5179,3.518,0,3.515,3.5136,3.515,3.516,3.5171,3.5177,3.5181,3.5193,3.5157,3.5172,3.5191,3.5199,3.5216,3.5232,3.524,3.5235,3.5202,3.5197,3.5208,3.5218,3.5227,3.5223,3.5054,3.5194,3.5192,3.5191,3.5191,3.519,3.525,3.5275,3.5269,3.5286,3.5284,3.5288,3.5308,3.5294,3.531,3.532,3.53,3.5324,3.532,3.5327,3.5326,3.5344,3.532,3.5336,3.534,3.5345,3.5352,3.5224,3.5345,3.5345,3.5344,3.5344,3.5344,0,3.5381,3.5375,3.5391,3.5396,3.5409,3.5377,3.5378,3.5392,3.5413,3.5412,3.5423,3.5445,3.546,3.5444,3.5456,3.5474,3.546,3.5479,3.5477,3.5476,3.5373,3.5362,3.549,3.549,3.549,3.549,3.549,3.549,3.5451,3.549,3.5475,3.5513,3.5506,3.5529,3.5533,3.5536,3.5535,3.5561,3.5573,3.5562,3.5555,3.5567,3.5579,3.5574,3.558,3.5605,3.5595,3.5498,3.5484,3.547,3.546,3.5607,3.5607,3.5697,3.5698,3.5698]}]]